Home   Weather   Bandar-Abbas   Past weeks

Flag for Iran Past Weather in Bandar-Abbas, Iran — Yesterday and Last 2 Weeks

Now
99 °F

Sunny.


Feels Like: 95 °F
Forecast: 75 / 93 °F
Wind: 7 mph from Northeast

Location: Bandarabbass

Current Time: Apr 23, 2017 at 10:36:50 am

Latest Report: Apr 23, 2017 at 10:00 am


Visibility: 10 mi

Pressure: 29.80 "Hg

Humidity: 18%

Dew Point: 48 °F

Location of Bandar-AbbasLocation

Past Weather in Bandar-Abbas — Graph

°F

Bandar-Abbas Temperature Yesterday

Maximum temperature yesterday: 102 °F (at 3:00 pm)
Minimum temperature yesterday: 73 °F (at 6:30 am)
Average temperature yesterday: 88 °F

High & Low Weather Summary for the Past Weeks

 TemperatureHumidityPressure
High102 °F (Apr 22, 3:00 pm)94% (Apr 22, 3:30 am)29.95 "Hg (Apr 22, 3:30 am)
Low68 °F (Apr 9, 4:30 am)18% (Apr 14, 7:30 pm)29.59 "Hg (Apr 21, 5:00 pm)
Average85 °F58%29.77 "Hg
* Reported Apr 8 9:30 am — Apr 23 9:30 am, Bandar-Abbas, Weather by CustomWeather, © 2017

Note: Actual official high and low records may vary slightly from our data, if they occured in-between our weather recording intervals... More about our weather records

Advertising

Bandar-Abbas Weather History for the Previous 24 Hours

Scroll right to see more
 ConditionsComfort  
Time TempWeatherWind HumidityBarometerVisibility
9:30 am
Sun, Apr 23
93 °FClear.7 mph26%29.77 "Hg4 mi
9:00 am90 °FClear.7 mph36%29.77 "Hg4 mi
8:30 am86 °FClear.No wind62%29.77 "Hg4 mi
8:00 am82 °FClear.5 mph70%29.77 "Hg4 mi
7:30 am75 °FClear.5 mph83%29.74 "Hg4 mi
7:00 am72 °FFog.5 mph94%29.74 "Hg3 mi
6:30 am70 °FFog.5 mph94%29.74 "Hg2 mi
5:30 am72 °FFog.5 mph88%29.71 "Hg2 mi
4:30 am73 °FFog.5 mph89%29.71 "Hg2 mi
3:30 am75 °FFog.5 mph89%29.71 "Hg2 mi
2:30 am77 °FFog.5 mph83%29.71 "Hg2 mi
2:00 am79 °FFog.7 mph84%29.71 "Hg2 mi
1:30 am79 °FFog.7 mph84%29.71 "Hg2 mi
1:00 am81 °FFog.2 mph84%29.71 "Hg3 mi
12:30 am81 °FFog.2 mph84%29.71 "Hg3 mi
12:00 am82 °FFog.9 mph79%29.71 "Hg2 mi
11:00 pm
Sat, Apr 22
91 °FClear.5 mph32%29.68 "Hg4 mi
10:30 pm91 °FClear.5 mph32%29.68 "Hg4 mi
10:00 pm91 °FClear.5 mph32%29.65 "Hg4 mi
9:30 pm91 °FClear.5 mph32%29.65 "Hg4 mi
9:00 pm91 °FClear.5 mph32%29.65 "Hg4 mi
8:30 pm93 °FClear.9 mph34%29.62 "Hg4 mi
8:00 pm93 °FClear.7 mph44%29.62 "Hg4 mi
7:30 pm97 °FClear.9 mph28%29.62 "Hg4 mi
7:00 pm97 °FClear.9 mph37%29.62 "Hg4 mi
6:30 pm99 °FClear.9 mph35%29.62 "Hg4 mi
6:00 pm97 °FClear.7 mph39%29.62 "Hg4 mi
5:30 pm97 °FClear.7 mph42%29.62 "Hg4 mi
4:30 pm102 °FHaze.7 mph27%29.62 "Hg3 mi
4:00 pm100 °FHaze.9 mph29%29.62 "Hg3 mi
3:30 pm100 °FHaze.9 mph35%29.65 "Hg3 mi
3:00 pm102 °FHaze.7 mph33%29.65 "Hg3 mi
2:30 pm99 °FHaze.9 mph42%29.65 "Hg3 mi
2:00 pm100 °FHaze.14 mph35%29.68 "Hg2 mi
1:30 pm95 °FHaze.14 mph53%29.68 "Hg2 mi
1:00 pm93 °FHaze.14 mph56%29.71 "Hg2 mi
12:30 pm93 °FHaze.12 mph56%29.74 "Hg2 mi
12:00 pm90 °FHaze.16 mph67%29.74 "Hg2 mi
11:30 am90 °FHaze.7 mph63%29.74 "Hg2 mi
11:00 am90 °FHaze.7 mph59%29.74 "Hg2 mi
10:30 am88 °FHaze.9 mph62%29.74 "Hg2 mi
10:00 am86 °FHaze.7 mph66%29.74 "Hg2 mi
Weather by CustomWeather, © 2017

See weather overviewHow to use our weather pages